HB9BTL-13 Weather Reports


Display with metric or nautical units.
time (UTC)temp
F
wind
direction
speed
MPH
gust
MPH
rain 1hr
in
rain 24hr
in
rain mn
in
humidity
%
barometer
mb
20260507170936 63 0.0 0.0 0.00 0.00 0.00 63 1014.2
20260507165431 63 0.0 0.0 0.00 0.00 0.00 61 1014.0
20260507163925 64 0.0 0.0 0.00 0.00 0.00 60 1014.0
20260507162420 64 0.0 0.0 0.00 0.00 0.00 57 1014.0
20260507160914 65 0.0 0.0 0.00 0.00 0.00 56 1014.0
20260507155409 65 0.0 0.0 0.00 0.00 0.00 57 1014.0
20260507153904 65 0.0 0.0 0.00 0.00 0.00 60 1013.9
20260507152358 64 0.0 0.0 0.00 0.00 0.00 60 1014.0
20260507150853 64 0.0 0.0 0.00 0.00 0.00 63 1014.0
20260507145347 64 0.0 0.0 0.00 0.00 0.00 65 1014.0
20260507143842 63 0.0 0.0 0.00 0.00 0.00 64 1014.0
20260507142337 63 0.0 0.0 0.00 0.00 0.00 65 1014.1
20260507140831 63 0.0 0.0 0.00 0.00 0.00 65 1014.2
20260507135328 64 0.0 0.0 0.00 0.00 0.00 67 1014.3
20260507133820 62 0.0 0.0 0.00 0.00 0.00 66 1014.4
20260507132316 62 0.0 0.0 0.00 0.00 0.00 74 1014.4
20260507130810 63 0.0 0.0 0.00 0.00 0.00 75 1014.5
20260507125307 62 0.0 0.0 0.00 0.00 0.00 74 1014.5
20260507123759 60 0.0 0.0 0.00 0.00 0.00 82 1014.6
20260507122254 61 0.0 0.0 0.00 0.00 0.00 82 1014.6
20260507120748 60 0.0 0.0 0.00 0.00 0.00 90 1014.6
20260507115243 60 0.0 0.0 0.00 0.00 0.00 96 1014.6
20260507113738 59 0.0 0.0 0.00 0.00 0.00 96 1014.8
20260507112232 58 0.0 0.0 0.00 0.00 0.00 10 1015.0
20260507110727 58 0.0 0.0 0.00 0.00 0.00 10 1014.9
20260507105221 59 0.0 0.0 0.00 0.00 0.00 90 1015.0
20260507103716 60 0.0 0.0 0.00 0.00 0.00 89 1014.9
20260507102210 59 0.0 0.0 0.00 0.00 0.00 90 1015.0
20260507100706 59 0.0 0.0 0.00 0.00 0.00 92 1014.9
20260507095200 58 0.0 0.0 0.00 0.00 0.00 90 1015.0
20260507093655 58 0.0 0.0 0.00 0.00 0.00 93 1015.0
20260507092149 57 0.0 0.0 0.00 0.00 0.00 95 1015.0
20260507090644 56 0.0 0.0 0.00 0.00 0.00 99 1015.0
20260507085138 56 0.0 0.0 0.00 0.00 0.00 99 1014.9
20260507083633 56 0.0 0.0 0.00 0.00 0.00 10 1014.9
20260507082128 56 0.0 0.0 0.00 0.00 0.00 10 1014.8
20260507080622 55 0.0 0.0 0.00 0.00 0.00 10 1014.9
20260507075117 55 0.0 0.0 0.00 0.00 0.00 10 1014.8
20260507073611 54 0.0 0.0 0.00 0.00 0.00 10 1014.7
20260507072107 54 0.0 0.0 0.00 0.00 0.00 10 1014.7
20260507070600 53 0.0 0.0 0.00 0.00 0.00 10 1014.7
20260507065055 53 0.0 0.0 0.00 0.00 0.00 10 1014.6
20260507063550 52 0.0 0.0 0.00 0.00 0.00 10 1014.5
20260507062044 53 0.0 0.0 0.00 0.00 0.00 10 1014.3
20260507060539 52 0.0 0.0 0.00 0.00 0.00 10 1014.3
20260507055034 52 0.0 0.0 0.00 0.00 0.00 10 1014.2
20260507053529 52 0.0 0.0 0.00 0.00 0.00 10 1014.1
20260507052023 52 0.0 0.0 0.00 0.00 0.00 10 1013.9
20260507050518 52 0.0 0.0 0.00 0.00 0.00 10 1013.8
20260507045012 52 0.0 0.0 0.00 0.00 0.00 10 1013.5
20260507043507 52 0.0 0.0 0.00 0.00 0.00 10 1013.4
20260507042001 52 0.0 0.0 0.00 0.00 0.00 10 1013.3
20260507040456 52 0.0 0.0 0.00 0.00 0.00 10 1013.2
20260507034950 51 0.0 0.0 0.00 0.00 0.00 10 1013.2
20260507033445 52 0.0 0.0 0.00 0.00 0.00 10 1013.1
20260507031940 52 0.0 0.0 0.00 0.00 0.00 10 1013.0
20260507030434 52 0.0 0.0 0.00 0.00 0.00 10 1012.9
20260507024929 51 0.0 0.0 0.00 0.00 0.00 10 1012.9
20260507023423 51 0.0 0.0 0.00 0.00 0.00 10 1012.9
20260507021919 51 0.0 0.0 0.00 0.00 0.00 10 1012.8
20260507020413 51 0.0 0.0 0.00 0.00 0.00 10 1012.8
20260507014908 51 0.0 0.0 0.00 0.00 0.00 10 1012.6
20260507013402 51 0.0 0.0 0.00 0.00 0.00 10 1012.4
20260507011857 51 0.0 0.0 0.00 0.00 0.00 10 1012.4
20260507010352 50 0.0 0.0 0.00 0.00 0.00 10 1012.3
20260507004846 50 0.0 0.0 0.00 0.00 0.00 10 1012.3
20260507003341 50 0.0 0.0 0.00 0.00 0.00 10 1012.2
20260507001835 51 0.0 0.0 0.00 0.00 0.00 10 1012.3
20260507000330 50 0.0 0.0 0.00 0.00 0.00 10 1012.3
20260506234824 50 0.0 0.0 0.00 0.00 0.00 10 1012.3
20260506231813 50 0.0 0.0 0.00 0.00 0.00 10 1012.1
20260506230308 50 0.0 0.0 0.00 0.00 0.00 10 1012.0
20260506224803 50 0.0 0.0 0.00 0.00 0.00 10 1012.0
20260506223257 51 0.0 0.0 0.00 0.00 0.00 10 1012.0
20260506221753 50 0.0 0.0 0.00 0.00 0.00 10 1012.0
20260506220247 51 0.0 0.0 0.00 0.00 0.00 10 1011.9
20260506214742 51 0.0 0.0 0.00 0.00 0.00 10 1011.9
20260506213236 51 0.0 0.0 0.00 0.00 0.00 10 1011.9
20260506211731 52 0.0 0.0 0.00 0.00 0.00 10 1012.0
20260506210226 52 0.0 0.0 0.00 0.00 0.00 10 1011.6
20260506204720 53 0.0 0.0 0.00 0.00 0.00 10 1011.8
20260506203215 52 0.0 0.0 0.00 0.00 0.00 10 1011.6
20260506201709 52 0.0 0.0 0.00 0.00 0.00 10 1011.4
20260506200204 52 0.0 0.0 0.00 0.00 0.00 10 1011.2
20260506194659 52 0.0 0.0 0.00 0.00 0.00 10 1011.0
20260506193153 53 0.0 0.0 0.00 0.00 0.00 10 1010.8
20260506191647 53 0.0 0.0 0.00 0.00 0.00 10 1010.6
20260506190142 54 0.0 0.0 0.00 0.00 0.00 10 1010.6
20260506184637 54 0.0 0.0 0.00 0.00 0.00 10 1010.6
20260506183131 54 0.0 0.0 0.00 0.00 0.00 10 1010.4
20260506181626 54 0.0 0.0 0.00 0.00 0.00 10 1010.1
20260506180121 55 0.0 0.0 0.00 0.00 0.00 99 1009.9
20260506174616 55 0.0 0.0 0.00 0.00 0.00 98 1009.8
20260506173110 55 0.0 0.0 0.00 0.00 0.00 93 1009.7